55P/Tempel-Tuttle (2031)

Japanese version
Home page
Updated on April 12, 2026

---------------------------------------------------------------------

* Profile

* Orbital Elements

Perturbed ephemeris below is based on elements from MPC 31070. 

 Epoch = 2463000.50000 TT   T = 2463007.48133 TT
 Peri. =  172.87122         a =    10.4570704 AU
 Node  =  235.61030 J2000.0 e =     0.9077776
 Incl. =  162.57482         q =     0.9643761 AU

* Finding Charts

* Magnitudes Graph

        m1 = 15.0 + 5 log d +  7.0 log r  [    ,-100]  (             - 2031 Feb.  9)
        m1 =  7.5 + 5 log d + 35.0 log r  [-100, -40]  (2031 Feb.  9 - 2031 Apr. 10)
        m1 =  8.5 + 5 log d + 20.0 log r  [ -40,    ]  (2031 Apr. 10 -             )

---------------------------------------------------------------------

The orbital elements are calculated using the Minor Planet & Comet Ephemeris Service.
The charts are made with StellaNavigator Ver.11 (AstroArts).
The magnitudes graphs are made with Comet for Windows.

---------------------------------------------------------------------

Copyright(C) Seiichi Yoshida (comet@aerith.net). All rights reserved.